User: anonymous   Login
Location: Unspecified
(0.0000°N, 0.0000°E)
Time: 21:34:14
(UTC+00:00)
Language:

CP3 - Orbit

View from above orbital plane
View from above orbital plane
View from above satellite
View from above satellite

Ground track
Ground track

The orbit data is extracted from the following two-line orbital elements,

1 31129U 07012N   18343.80911078  .00000134  00000-0  38844-4 0  9998
2 31129  98.1430 284.1557 0094597 316.7666  42.6134 14.56741479618209
Epoch (UTC): 09 December 2018 19:25:07
Eccentricity: 0.0094597
inclination: 98.1430°
perigee height: 637 km
apogee height: 771 km
right ascension of ascending node: 284.1557°
argument of perigee: 316.7666°
revolutions per day: 14.56741479
mean anomaly at epoch: 42.6134°
orbit number at epoch: 61820

The dashed part of the orbit path shows where the satellite is in the earth's shadow,  

DLR